When you browse on this site, cookies collect data to enhance your experience and personalize the content and advertising you see.
Visit our Privacy Policy to learn more. By continuing to use the site, you agree to this use of cookies and data.
  • In Sweden
  • List of Countries
  • For 7 days
  • Water Temperature
  • Weather Map
  • Weather Widgets
  • user-avatar
    Login

    Hourly Weather Nadvornaya

    Today, 13 December, Friday

    Time Temperature Precipitation Wind Pressure Humidity
    00:00 +2°C° 0 mm 1 mps 714 mmHg 100%
    01:00 +1°C° 0 mm 1 mps 714 mmHg 100%
    02:00 +1°C° 0 mm 1 mps 714 mmHg 100%
    03:00 +1°C° 0 mm 1 mps 713 mmHg 100%
    04:00 +1°C° 0 mm 1 mps 712 mmHg 100%
    05:00 -1°C° 0 mm 2 mps 712 mmHg 100%
    06:00 -1°C° 0 mm 2 mps 711 mmHg 100%
    07:00 -1°C° 0 mm 2 mps 711 mmHg 99%
    08:00 -1°C° 0 mm 3 mps 710 mmHg 100%
    09:00 -2°C° 0 mm 4 mps 710 mmHg 100%
    10:00 -1°C° 0 mm 4 mps 709 mmHg 100%
    11:00 0°C° 0 mm 4 mps 709 mmHg 100%
    12:00 +1°C° 0 mm 4 mps 709 mmHg 100%
    13:00 +3°C° 0 mm 4 mps 709 mmHg 100%
    14:00 +4°C° 0 mm 4 mps 708 mmHg 100%
    15:00 +4°C° 0 mm 4 mps 708 mmHg 100%
    16:00 +3°C° 0 mm 4 mps 708 mmHg 100%
    17:00 +1°C° 0 mm 4 mps 707 mmHg 100%
    18:00 +2°C° 0 mm 3 mps 707 mmHg 100%
    19:00 +1°C° 0 mm 3 mps 707 mmHg 100%
    20:00 +1°C° 0 mm 3 mps 708 mmHg 100%
    21:00 +1°C° 0 mm 3 mps 708 mmHg 100%
    22:00 +1°C° 0 mm 3 mps 707 mmHg 100%
    23:00 +1°C° 0 mm 3 mps 707 mmHg 100%

    Tomorrow, 14 December, Saturday

    Time Temperature Precipitation Wind Pressure Humidity
    00:00 0°C° 0 mm 3 mps 707 mmHg 100%
    01:00 0°C° 0 mm 3 mps 708 mmHg 100%
    02:00 0°C° 0 mm 3 mps 708 mmHg 100%
    03:00 +1°C° 0 mm 2 mps 708 mmHg 100%
    04:00 0°C° 0 mm 3 mps 708 mmHg 100%
    05:00 -1°C° 0 mm 3 mps 708 mmHg 100%
    06:00 -1°C° 0 mm 3 mps 708 mmHg 100%
    07:00 -1°C° 0 mm 3 mps 709 mmHg 100%
    08:00 -1°C° 0 mm 2 mps 709 mmHg 100%
    09:00 -1°C° 0 mm 2 mps 710 mmHg 100%
    10:00 +2°C° 0 mm 1 mps 710 mmHg 100%
    11:00 +1°C° 0 mm 2 mps 710 mmHg 100%
    12:00 +3°C° 0 mm 2 mps 710 mmHg 100%
    13:00 +4°C° 0 mm 2 mps 711 mmHg 100%
    14:00 +4°C° 0 mm 2 mps 711 mmHg 100%
    15:00 +4°C° 0 mm 2 mps 711 mmHg 100%
    16:00 +4°C° 0 mm 2 mps 711 mmHg 100%
    17:00 +4°C° 0 mm 2 mps 712 mmHg 100%
    18:00 +5°C° 0 mm 1 mps 712 mmHg 100%
    19:00 +4°C° 0 mm 2 mps 713 mmHg 100%
    20:00 +5°C° 0 mm 2 mps 713 mmHg 91%
    21:00 +5°C° 0 mm 1 mps 713 mmHg 94%
    22:00 +4°C° 0 mm 2 mps 714 mmHg 93%
    23:00 +6°C° 0 mm 1 mps 714 mmHg 92%

    Day after tomorrow, 15 December, Sunday

    Time Temperature Precipitation Wind Pressure Humidity
    00:00 +6°C° 0 mm 1 mps 715 mmHg 86%
    01:00 +5°C° 0 mm 2 mps 715 mmHg 85%
    02:00 +3°C° 0 mm 3 mps 717 mmHg 90%
    03:00 +2°C° 0 mm 3 mps 717 mmHg 92%
    04:00 +2°C° 0 mm 2 mps 718 mmHg 91%
    05:00 +2°C° 0 mm 2 mps 718 mmHg 88%
    06:00 +2°C° 0 mm 2 mps 719 mmHg 86%
    07:00 +2°C° 0 mm 2 mps 719 mmHg 82%
    08:00 +1°C° 0 mm 3 mps 720 mmHg 78%
    09:00 0°C° 0 mm 5 mps 720 mmHg 78%
    10:00 +1°C° 0 mm 5 mps 721 mmHg 76%
    11:00 +4°C° 0 mm 4 mps 721 mmHg 75%
    12:00 +5°C° 0 mm 4 mps 721 mmHg 74%
    13:00 +6°C° 0 mm 4 mps 722 mmHg 75%
    14:00 +6°C° 0 mm 4 mps 722 mmHg 76%
    15:00 +6°C° 0 mm 4 mps 722 mmHg 78%
    16:00 +5°C° 0 mm 5 mps 722 mmHg 78%
    17:00 +5°C° 0 mm 5 mps 722 mmHg 77%
    18:00 +5°C° 0 mm 3 mps 723 mmHg 74%
    19:00 +5°C° 0 mm 4 mps 723 mmHg 73%
    20:00 +5°C° 0 mm 4 mps 724 mmHg 72%
    21:00 +5°C° 0 mm 4 mps 724 mmHg 71%
    22:00 +5°C° 0 mm 4 mps 724 mmHg 71%
    23:00 +5°C° 0 mm 4 mps 724 mmHg 71%

    16 December, Monday

    Time Temperature Precipitation Wind Pressure Humidity
    00:00 +5°C° 0 mm 4 mps 724 mmHg 71%
    01:00 +7°C° 0 mm 3 mps 724 mmHg 69%
    02:00 +7°C° 0 mm 2 mps 725 mmHg 66%
    03:00 +8°C° 0 mm 1 mps 725 mmHg 66%
    04:00 +8°C° 0 mm 1 mps 725 mmHg 64%
    05:00 +8°C° 0 mm 1 mps 725 mmHg 64%
    06:00 +8°C° 0 mm 1 mps 725 mmHg 64%
    07:00 +7°C° 0 mm 1 mps 725 mmHg 63%
    08:00 +7°C° 0 mm 1 mps 725 mmHg 61%
    09:00 +7°C° 0 mm 1 mps 725 mmHg 62%
    10:00 +8°C° 0 mm 1 mps 726 mmHg 62%
    11:00 +8°C° 0 mm 1 mps 726 mmHg 71%
    12:00 +9°C° 0 mm 1 mps 726 mmHg 77%
    13:00 +9°C° 0 mm 2 mps 726 mmHg 79%
    14:00 +10°C° 0 mm 2 mps 726 mmHg 77%

    17 December, Tuesday

    Time Temperature Precipitation Wind Pressure Humidity

    18 December, Wednesday

    Time Temperature Precipitation Wind Pressure Humidity
    Show more